Weather

DAILY 7 DAY TOTAL
onrain

Note: Some stations are located near irrigated fields and may also report irrigation

Alliston Mount Forest Blyth Guelph Grand Bend Strathroy Woodstock Belmont Simcoe Leamington Chatham West Lorne






Belmont - Historical Weather Data
Date Max Temp (°C) Min Temp (°C) Avg Temp (°C) Rain (mm) 7Day Rain(mm) Total Rain(mm) Avg RH (%)
9/22/2018 16.6 5.1 12.2 0.0 0.2 318.2 91.1
9/21/2018 29.4 16.8 23.7 0.0 0.2 318.2 90.5
9/20/2018 22.7 12.0 17.2 0.0 0.2 318.2 99.9
9/19/2018 24.5 12.7 17.6 0.0 0.2 318.2 91.9
9/18/2018 27.1 13.9 19.3 0.2 0.2 318.2 97.6
9/17/2018 25.9 14.5 20.2 0.0 0.0 318.0 98.2
9/16/2018 29.6 14.8 21.4 0.0 7.6 318.0 94.9
9/15/2018 30.2 14.5 21.6 0.0 8.6 318.0 95.9
9/14/2018 28.7 16.8 22.0 0.0 8.6 318.0 97.2
9/13/2018 25.4 14.9 20.2 0.0 8.6 318.0 99.9
9/12/2018 23.4 10.1 16.7 0.0 8.6 318.0 98.3
9/11/2018 22.4 10.0 15.1 0.0 8.6 318.0 98.0
9/10/2018 16.0 11.0 13.7 7.6 8.8 318.0 100.0
9/9/2018 15.0 9.7 12.6 1.0 3.0 310.4 92.0
9/8/2018 17.0 10.1 13.9 0.0 3.0 309.4 96.9
9/7/2018 24.0 13.7 18.1 0.0 3.0 309.4 96.7
9/6/2018 25.3 17.7 20.9 0.0 3.0 309.4 99.1
9/5/2018 31.7 18.4 25.4 0.0 3.0 309.4 95.3
9/4/2018 30.1 18.2 23.5 0.2 3.6 309.4 97.9
9/3/2018 30.5 20.6 24.2 1.8 3.4 309.2 99.0
9/2/2018 29.2 21.8 24.5 1.0 12.2 307.4 98.3
9/1/2018 28.7 12.0 21.0 0.0 11.2 306.4 98.2
8/31/2018 25.0 10.4 17.6 0.0 14.4 306.4 94.1
8/30/2018 22.3 13.0 17.5 0.0 14.4 306.4 96.7
8/29/2018 27.4 18.3 23.8 0.6 14.4 306.4 98.4
8/28/2018 30.5 22.3 25.9 0.0 17.4 305.8 98.3
8/27/2018 30.0 18.6 23.7 10.6 36.4 305.8 99.7
8/26/2018 28.8 19.4 23.3 0.0 25.8 295.2 99.1
8/25/2018 25.2 19.3 21.7 3.2 25.8 295.2 99.8
8/24/2018 25.6 10.0 18.4 0.0 28.8 292.0 93.2
8/23/2018 26.2 9.6 17.6 0.0 45.4 292.0 91.0
8/22/2018 20.7 11.3 17.5 3.6 69.8 292.0 96.2
8/21/2018 25.5 18.5 21.9 19.0 66.2 288.4 100.0
8/20/2018 25.4 12.8 19.7 0.0 47.2 269.4 98.6
8/19/2018 25.9 13.5 19.2 0.0 47.2 269.4 95.8
8/18/2018 26.6 15.8 21.6 6.2 47.4 269.4 96.5
8/17/2018 27.3 20.0 23.1 16.6 41.2 263.2 99.9
8/16/2018 25.0 15.8 20.8 24.4 24.8 246.6 100.0
8/15/2018 28.8 16.4 22.3 0.0 12.6 222.2 96.6
8/14/2018 30.0 16.9 22.6 0.0 40.0 222.2 91.2
8/13/2018 27.9 13.0 20.7 0.0 41.8 222.2 93.1
8/12/2018 28.1 15.0 21.1 0.2 53.2 222.2 94.6
8/11/2018 27.9 11.3 19.9 0.0 53.0 222.0 91.5
8/10/2018 26.5 13.9 20.3 0.2 53.0 222.0 93.8
8/9/2018 28.2 13.7 20.4 12.2 52.8 221.8 96.8
8/8/2018 26.0 17.3 21.8 27.4 40.6 209.6 99.7
8/7/2018 28.5 19.6 23.5 1.8 13.2 182.2 98.0
8/6/2018 30.7 19.4 23.5 11.4 11.6 180.4 98.5
8/5/2018 31.2 13.2 23.3 0.0 0.4 169.0 94.6
8/4/2018 29.5 15.3 22.1 0.0 1.6 169.0 91.8
8/3/2018 28.4 14.9 22.3 0.0 1.6 169.0 93.8
8/2/2018 26.5 14.7 20.9 0.0 6.0 169.0 96.5
8/1/2018 25.3 17.8 21.8 0.0 6.6 169.0 99.8
7/31/2018 25.2 13.9 20.9 0.2 6.6 169.0 97.6
7/30/2018 26.0 12.6 19.4 0.2 12.6 168.8 95.7
7/29/2018 25.5 11.4 18.4 1.2 38.8 168.6 97.1
7/28/2018 23.6 13.6 18.1 0.0 56.2 167.4 94.9
7/27/2018 24.8 12.9 18.9 4.4 56.4 167.4 95.1
7/26/2018 28.1 13.8 20.6 0.6 56.8 163.0 95.6
7/25/2018 27.4 15.8 22.1 0.0 56.2 162.4 93.9
7/24/2018 28.1 17.9 22.5 6.2 56.2 162.4 98.4
7/23/2018 27.8 17.1 22.7 26.4 50.0 156.2 97.9
7/22/2018 20.9 15.1 17.7 18.6 31.0 129.8 100.0
7/21/2018 25.5 20.6 22.2 0.2 12.4 111.2 98.1
7/20/2018 28.0 16.3 21.7 4.8 16.0 111.0 94.5
7/19/2018 27.3 7.9 18.7 0.0 11.2 106.2 82.8
7/18/2018 26.3 10.8 18.2 0.0 11.2 106.2 84.2
7/17/2018 25.4 13.9 21.0 0.0 11.2 106.2 84.7
7/16/2018 32.3 18.4 24.5 7.4 11.2 106.2 93.7
7/15/2018 31.7 16.7 24.4 0.0 3.8 98.8 92.8
7/14/2018 28.1 15.8 21.9 3.8 3.8 98.8 97.6
7/13/2018 29.8 13.2 22.8 0.0 0.0 95.0 78.8
7/12/2018 29.2 10.7 20.7 0.0 0.0 95.0 80.0
7/11/2018 28.2 11.2 20.6 0.0 0.4 95.0 80.0
7/10/2018 29.9 15.4 22.7 0.0 0.4 95.0 76.7
7/9/2018 30.6 9.4 21.3 0.0 0.4 95.0 83.8
7/8/2018 28.6 9.1 19.4 0.0 6.2 95.0 77.6
7/7/2018 25.9 6.9 17.9 0.0 6.2 95.0 77.6
7/6/2018 25.2 13.6 20.0 0.0 6.2 95.0 82.6
7/5/2018 31.8 19.8 24.9 0.4 6.2 95.0 97.6
7/4/2018 32.6 18.3 25.8 0.0 5.8 94.6 91.1
7/3/2018 31.5 13.9 23.5 0.0 14.2 94.6 83.8
7/2/2018 31.0 18.6 25.9 5.8 14.2 94.6 96.1
7/1/2018 32.1 18.0 26.0 0.0 8.4 88.8 89.3
6/30/2018 32.8 18.9 26.1 0.0 18.0 88.8 96.0
6/29/2018 31.1 14.6 23.9 0.0 24.6 88.8 89.2
6/28/2018 28.3 17.5 21.9 0.0 37.6 88.8 95.0
6/27/2018 22.4 15.7 19.5 8.4 37.6 88.8 99.6
6/26/2018 25.8 9.2 18.5 0.0 29.6 80.4 84.5
6/25/2018 23.7 11.1 17.7 0.0 29.6 80.4 84.6
6/24/2018 21.5 15.7 18.9 9.6 32.8 80.4 100.0
6/23/2018 25.1 16.4 19.3 6.6 23.2 70.8 99.8
6/22/2018 23.4 13.9 17.0 13.0 16.8 64.2 84.6
6/21/2018 25.5 10.6 18.9 0.0 3.8 51.2 85.1
6/20/2018 23.0 14.2 18.7 0.4 3.8 51.2 96.7
6/19/2018 26.9 16.2 21.1 0.0 11.0 50.8 92.4
6/18/2018 33.5 21.5 26.1 3.2 11.0 50.8 92.9
6/17/2018 30.7 13.5 23.3 0.0 7.8 47.6 88.9
6/16/2018 28.0 13.3 20.4 0.2 7.8 47.6 87.9
6/15/2018 26.6 7.0 17.5 0.0 8.0 47.4 76.4
6/14/2018 24.8 11.3 18.9 0.0 8.0 47.4 73.5
6/13/2018 29.8 14.4 21.9 7.6 8.0 47.4 88.4
6/12/2018 26.4 7.8 19.1 0.0 0.4 39.8 89.1
6/11/2018 26.8 12.9 19.3 0.0 0.4 39.8 57.1
6/10/2018 22.1 15.9 18.5 0.0 2.2 39.8 87.0
6/9/2018 21.4 11.3 16.7 0.4 9.6 39.8 94.1
6/8/2018 28.0 10.8 19.1 0.0 9.2 39.4 84.6
6/7/2018 23.7 8.3 16.6 0.0 9.2 39.4 90.8
6/6/2018 19.4 7.7 12.9 0.0 9.2 39.4 91.5
6/5/2018 15.2 8.6 12.4 0.0 9.2 39.4 94.4
6/4/2018 20.5 13.4 16.2 1.8 9.2 39.4 90.8
6/3/2018 24.8 13.5 18.3 7.4 7.4 37.6 97.9
6/2/2018 21.9 13.0 17.0 0.0 0.0 30.2 97.1
6/1/2018 29.3 16.6 23.1 0.0 0.4 30.2 89.5
5/31/2018 30.1 20.3 24.4 0.0 0.4 30.2 92.9
5/30/2018 29.8 17.7 24.5 0.0 0.4 30.2 82.3
5/29/2018 32.3 16.8 24.6 0.0 0.4 30.2 78.7
5/28/2018 32.7 14.7 24.5 0.0 2.6 30.2 81.2
5/27/2018 28.1 14.3 21.2 0.0 4.0 30.2 95.6
5/26/2018 26.2 11.7 19.3 0.4 4.0 30.2 93.6
5/25/2018 28.8 8.6 20.0 0.0 5.2 29.8 73.5
5/24/2018 28.3 7.1 18.0 0.0 5.2 29.8 78.5
5/23/2018 25.3 9.5 17.2 0.0 5.2 29.8 79.4
5/22/2018 20.1 11.6 15.4 2.2 5.2 29.8 99.9
5/21/2018 22.7 3.8 14.1 1.4 18.0 27.6 76.9
5/20/2018 18.6 7.4 14.1 0.0 16.6 26.2 96.9
5/19/2018 22.1 10.5 16.2 1.6 16.6 26.2 94.6
5/18/2018 19.0 10.0 14.7 0.0 24.6 24.6 62.1
5/17/2018 27.7 8.2 19.0 0.0 24.6 24.6 79.3
5/16/2018 24.7 7.4 16.3 0.0 24.6 24.6 88.2
5/15/2018 22.4 11.8 16.5 15.0 24.6 24.6 97.3
5/14/2018 19.8 5.6 12.9 0.0 9.6 9.6 99.6
5/13/2018 20.8 6.0 13.0 0.0 9.6 9.6 87.3
5/12/2018 15.5 5.0 9.0 9.6 9.6 9.6 94.6
5/11/2018 10.7 1.5 6.3 0.0 0.0 0.0 91.4
5/10/2018 19.5 6.7 16.1 0.0 0.0 0.0 94.3
5/9/2018 26.7 3.3 16.4 0.0 0.0 0.0 79.5
5/8/2018 22.3 1.9 13.3 0.0 0.0 0.0 72.7
5/7/2018 18.6 5.8 12.8 0.0 0.0 0.0 81.8
5/6/2018 22.3 9.7 14.1 0.0 0.0 0.0 94.0
5/5/2018 24.3 5.9 15.0 0.0 0.0 0.0 81.1
5/4/2018 24.1 6.5 15.7 0.0 0.0 0.0 94.6
5/3/2018 19.7 13.7 16.7 0.0 0.0 0.0 99.9
5/2/2018 26.4 9.1 20.0 0.0 0.0 0.0 69.5
5/1/2018 25.0 0.8 14.6 0.0 0.0 0.0 66.1